Torna al catalogo

SL-8 DEB

AttivoLEO
NORAD 21183·DEBRIS·🇷🇺 Russia

Lanciato Feb 12, 1991 da Plesetsk Cosmodrome

Loading…

Prossimi Passaggi (prossime 24 ore)

TLE

AggiornatoSource: Space-Track

Epoca: Sep 14, 2026, 01:19 UTC

1 21183U 91009AW  26257.05540381  .00000310  00000-0  34810-2 0  9994
2 21183  74.1818 291.7054 0216446 118.1479 268.9667 12.05596499562409

Traccia SL-8 DEB in tempo reale con AllMySat

Download on the App Store